Airfield :
LOGIN :

Register | Disclaimer

   EN    FR    IT 

 










Legend :    VFR   Marginal VFR   IFR   Intensive IFR   Very Intensive IFR
Visi :
Ceiling :
>= 8 km
>= 3000ft
5 to 8 km
1000 to 3000 ft
1500m to 5 km
500 to 1000 ft
800 to 1500m
200 to 500 ft
< 800m
< 200 ft
Symbols :   Thunderstorms  Fog  Heavy snow  Heavy precipitations  Wind > 20 kt
SIGMETs :     Misc.  Thunderstorms  Icing  Turbulence  Mountain Waves  Volcanic Ashes






- Airport Elevation : 410 ft
- IATA code : AVB


LIPA - Aviano AB Pordenone

CURRENT METAR :
  • 071455Z 09002KT 9999 SCT060 17/12 Q1007 RMK SCT VIS MIN 9999 WIND THR05 /////KT WIND THR23 /////KT A2976 BLU

EXPIRED METARs :
  • 071355Z 10005KT 9999 FEW030CB BKN045 14/12 Q1006 RETS RMK BKN VIS MIN 9999 WIND THR05 /////KT WIND THR23 /////KT A2973 BLU
  • 071309Z 35015KT 4000 -TSRA FEW020CB BKN035 17/14 Q1008 RMK OVC VIS MIN 4000 WIND THR05 /////KT WIND THR23 /////KT A2977 GRN

TAF TAF LIPA
Valid from the 07 at 15:00 until the 08 at 00:00 UTC


071400Z 0715/0724 35012KT 9999 SCT025 BKN040
TEMPO 0715/0718 3000 TSRA FEW020CB BKN030
BECMG 0718/0721 9999 SCT040



MET'MAP, your aeronautical weather chart ! - Copyright ORBIFLY December 2007 - Disclaimer

ORBIFLY MET'MAP TEAM :

Programming & Development : Alexandra Zaïnal
Concept & original design : Baudouin d'Aumeries
Assistance for programming : Marc-Olivier Méhu
Technical & hardware support : Manuel Goepfert

Contact : metmap@orbifly.com




SOURCES & CREDITS :

   NOAA